Location: Boda
(47.1872°N, 9.5454°E)
Time: 18:23:47
(UTC+00:00)

Cosmos 2016 Rocket - Pass Details

Date: 14 May 2021
Orbit: 946 x 1001 km, 83.0° (Epoch: 15 June)

Event Time Altitude Azimuth Distance (km) Brightness Sun altitude
Rises 01:31:59 0° 348° (NNW) 3,697 7.7 -17.6°
Reaches altitude 10° 01:34:33 10° 345° (NNW) 2,737 6.9 -17.4°
Maximum altitude 01:40:41 61° 267° (W) 1,091 4.1 -16.8°
Enters shadow 01:44:39 22° 194° (SSW) 1,947 5.0 -16.4°
